User: anonymous   Login
Location: Unspecified
(0.0000°N, 0.0000°E)
Time: 01:08:05
(UTC+00:00)
Language:

STARLINK-33548 - Orbit

View from above orbital plane
View from above orbital plane
View from above satellite
View from above satellite

Ground track
Ground track

The orbit is defined by the following mean orbital elements,

1 62280U          26145.42849473 +.00000000 +00000-0 +63248-3 0 00006
2 62280  43.0010 132.1218 0001825 263.2943  96.7701 15.27593583    09
Epoch (UTC): 25 May 2026 10:17:01
Eccentricity: 0.0001825
inclination: 43.0010°
perigee height: 482 km
apogee height: 484 km
right ascension of ascending node: 132.1218°
argument of perigee: 263.2943°
revolutions per day: 15.27593583
mean anomaly at epoch: 96.7701°

The dashed part of the orbit path shows where the satellite is in the earth's shadow,  

DLR